FW8288 Weather Reports


Display with metric or nautical units.
time (UTC)temp
F
wind
direction
speed
MPH
gust
MPH
rain 1hr
in
rain 24hr
in
rain mn
in
humidity
%
barometer
mb
20240303174606 77 114 0.0 6.0 0.00 0.00 0.00 79 1015.1
20240303173130 74 0 0.0 3.0 0.00 0.00 0.00 83 1015.4
20240303171602 73 118 1.0 3.0 0.00 0.00 0.00 86 1015.4
20240303170058 72 103 1.0 4.0 0.00 0.00 0.00 88 1015.5
20240303164600 72 124 0.0 3.0 0.00 0.00 0.00 90 1015.9
20240303163059 71 108 0.0 4.0 0.00 0.00 0.00 93 1015.8
20240303161559 70 0 0.0 4.0 0.00 0.00 0.00 97 1016.0
20240303160056 69 122 0.0 2.0 0.00 0.00 0.00 97 1015.9
20240303154610 68 0 0.0 3.0 0.00 0.00 0.00 98 1015.9
20240303153100 68 101 1.0 4.0 0.00 0.00 0.00 98 1016.0
20240303151559 67 0 0.0 3.0 0.00 0.00 0.00 98 1016.0
20240303150104 67 0 1.0 4.0 0.00 0.00 0.00 98 1016.0
20240303144600 67 117 0.0 3.0 0.00 0.00 0.00 98 1015.9
20240303143059 67 112 0.0 2.0 0.00 0.00 0.00 98 1015.7
20240303141559 67 57 0.0 3.0 0.00 0.00 0.00 98 1015.6
20240303140107 66 57 0.0 2.0 0.00 0.00 0.00 98 1015.3
20240303134558 65 0 0.0 1.0 0.00 0.00 0.00 98 1015.1
20240303133059 65 0 0.0 1.0 0.00 0.00 0.00 98 1015.0
20240303131600 65 52 0.0 1.0 0.00 0.00 0.00 98 1014.9
20240303130059 64 52 0.0 1.0 0.00 0.00 0.00 98 1014.9
20240303124557 64 0 0.0 0.0 0.00 0.00 0.00 98 1014.9
20240303123101 64 0 0.0 0.0 0.00 0.00 0.00 98 1014.8
20240303121602 64 0 0.0 1.0 0.00 0.00 0.00 97 1014.9
20240303120058 63 0 0.0 0.0 0.00 0.00 0.00 97 1014.6
20240303114559 63 0 0.0 0.0 0.00 0.00 0.00 97 1014.6
20240303113059 63 75 0.0 1.0 0.00 0.00 0.00 97 1014.5
20240303111601 63 0 0.0 0.0 0.00 0.00 0.00 97 1014.5
20240303110108 63 0 0.0 0.0 0.00 0.00 0.00 97 1014.6
20240303104602 63 0 0.0 0.0 0.00 0.00 0.00 97 1014.5
20240303103126 63 0 0.0 0.0 0.00 0.00 0.00 97 1014.4
20240303101609 62 0 0.0 1.0 0.00 0.00 0.00 97 1014.4
20240303100107 62 75 0.0 1.0 0.00 0.00 0.00 97 1014.5
20240303094607 62 0 0.0 2.0 0.00 0.00 0.00 97 1014.4
20240303093100 62 0 0.0 2.0 0.00 0.00 0.00 97 1014.4
20240303091634 62 0 0.0 2.0 0.00 0.00 0.00 97 1014.4
20240303090107 62 51 0.0 2.0 0.00 0.00 0.00 97 1014.4
20240303084602 62 0 0.0 3.0 0.00 0.00 0.00 97 1014.7
20240303083104 62 0 0.0 2.0 0.00 0.00 0.00 97 1014.7
20240303081601 62 91 0.0 3.0 0.00 0.00 0.00 96 1014.8
20240303080106 62 60 0.0 4.0 0.00 0.00 0.00 96 1015.1
20240303074558 62 79 1.0 4.0 0.00 0.00 0.00 96 1015.2
20240303073057 62 70 1.0 5.0 0.00 0.00 0.00 96 1015.3
20240303071601 62 359 2.0 6.0 0.00 0.00 0.00 96 1015.4
20240303070057 62 50 0.0 4.0 0.00 0.00 0.00 96 1015.5
20240303064601 62 0 0.0 4.0 0.00 0.00 0.00 95 1015.3
20240303063058 62 47 1.0 4.0 0.00 0.00 0.00 95 1015.5
20240303061615 61 124 0.0 2.0 0.00 0.00 0.00 95 1015.7
20240303060100 61 0 0.0 2.0 0.00 0.00 0.00 94 1015.7
20240303054557 61 0 0.0 1.0 0.00 0.00 0.00 93 1016.1
20240303053100 62 0 0.0 1.0 0.00 0.00 0.00 93 1015.9
20240303051558 62 0 0.0 1.0 0.00 0.00 0.00 92 1016.3
20240303050134 62 65 0.0 2.0 0.00 0.00 0.00 92 1016.1
20240303044608 63 127 0.0 2.0 0.00 0.00 0.00 92 1016.3
20240303043135 63 0 0.0 2.0 0.00 0.00 0.00 91 1016.2
20240303041629 64 0 0.0 1.0 0.00 0.00 0.00 90 1016.3
20240303040114 65 0 0.0 2.0 0.00 0.00 0.00 89 1016.2
20240303034603 65 0 0.0 2.0 0.00 0.00 0.00 88 1016.3
20240303033121 66 139 0.0 2.0 0.00 0.00 0.00 88 1016.5
20240303031559 66 0 0.0 3.0 0.00 0.00 0.00 88 1016.4
20240303030102 66 76 1.0 5.0 0.00 0.00 0.00 88 1016.6
20240303024615 66 124 1.0 4.0 0.00 0.00 0.00 88 1016.7
20240303023107 66 124 0.0 1.0 0.00 0.00 0.00 88 1016.4
20240303021557 66 107 0.0 3.0 0.00 0.00 0.00 88 1016.4
20240303020059 66 127 0.0 2.0 0.00 0.00 0.00 89 1016.4
20240303014559 65 0 0.0 3.0 0.00 0.00 0.00 88 1016.2
20240303013100 66 0 0.0 2.0 0.00 0.00 0.00 88 1016.0
20240303011609 66 0 0.0 1.0 0.00 0.00 0.00 86 1016.1
20240303010110 67 0 0.0 3.0 0.00 0.00 0.00 86 1016.0
20240303004603 68 0 0.0 3.0 0.00 0.00 0.00 85 1016.1
20240303003109 68 0 1.0 4.0 0.00 0.00 0.00 84 1016.0
20240303001604 69 0 0.0 5.0 0.00 0.00 0.00 82 1016.0
20240303000107 70 112 1.0 3.0 0.00 0.00 0.00 81 1015.7
20240302234609 70 137 2.0 7.0 0.00 0.00 0.00 80 1015.7
20240302233112 71 69 2.0 5.0 0.00 0.00 0.00 78 1015.5
20240302231604 72 69 1.0 5.0 0.00 0.00 0.00 76 1015.7
20240302230100 73 75 2.0 6.0 0.00 0.00 0.00 76 1015.7
20240302224601 73 89 0.0 3.0 0.00 0.00 0.00 77 1015.8
20240302223112 72 104 1.0 4.0 0.00 0.00 0.00 77 1016.0
20240302221630 72 291 0.0 3.0 0.00 0.00 0.00 77 1016.3
20240302220123 72 0 0.0 1.0 0.00 0.00 0.00 78 1016.3
20240302214557 72 0 0.0 5.0 0.00 0.00 0.00 79 1016.5
20240302213134 71 286 1.0 5.0 0.00 0.00 0.00 79 1016.5
20240302211603 70 115 0.0 4.0 0.00 0.00 0.00 81 1016.5
20240302210058 70 75 1.0 5.0 0.00 0.00 0.00 80 1016.5
20240302204602 70 91 0.0 4.0 0.00 0.00 0.00 82 1016.7
20240302203100 69 199 1.0 4.0 0.00 0.00 0.00 82 1016.9
20240302201604 69 107 1.0 4.0 0.00 0.00 0.00 82 1017.1
20240302200101 69 105 1.0 4.0 0.00 0.00 0.00 82 1017.3
20240302194559 69 114 1.0 2.0 0.00 0.00 0.00 82 1017.4
20240302193135 69 102 1.0 4.0 0.00 0.00 0.00 83 1017.5
20240302191610 68 0 0.0 5.0 0.00 0.00 0.00 84 1017.6
20240302190109 68 101 2.0 4.0 0.00 0.00 0.00 84 1017.9
20240302184612 68 119 0.0 2.0 0.00 0.00 0.00 84 1018.4
20240302183105 68 274 0.0 4.0 0.00 0.00 0.00 85 1018.8
20240302181610 67 276 1.0 4.0 0.00 0.00 0.00 85 1019.2
20240302180106 67 0 0.0 3.0 0.00 0.00 0.00 85 1019.4